Regional Weather Roundup
Issued by NWS

Home | Current Version | Previous Version | Graphics & Text | Print | Product List | Glossary On
Versions: 1 2 3 4 5 6 7 8 9 10 11 12 13 14 15 16 17 18 19 20 21 22 23 24 25 26 27 28 29 30 31 32 33 34 35 36 37 38 39 40 41 42 43 44 45 46 47 48 49 50
000
ASUS45 KCYS 202010
RWRWY

WYOMING REGIONAL WEATHER ROUNDUP
NATIONAL WEATHER SERVICE CHEYENNE WY
200 PM MDT MON OCT 20 2014

NOTE:  "FAIR" INDICATES FEW OR NO CLOUDS BELOW 12,000 FEET
WITH NO SIGNIFICANT WEATHER AND/OR OBSTRUCTIONS TO VISIBILITY.

WYZ001-202100-
YELLOWSTONE NATIONAL PARK

CITY           SKY/WX    TMP DP  RH WIND       PRES   REMARKS
LK YELLOWSTONE   N/A     56  34  43 VRB3      30.17F
W YELLOWSTONE  NOT AVBL

$$
WYZ002>013-054>058-071-098>099-202100-
NORTHERN WYOMING

CITY           SKY/WX    TMP DP  RH WIND       PRES   REMARKS
JACKSON        SUNNY     61  28  29 CALM      30.10F
CODY           SUNNY     73  28  19 SE7       29.97S
GREYBULL       SUNNY     71  32  23 VRB5      29.94F
WORLAND        SUNNY     73  33  23 N6        29.95F
SHERIDAN       SUNNY     76  30  18 VRB5      29.91F
BUFFALO        SUNNY     76  18  11 VRB5      29.97F
GILLETTE       SUNNY     77  29  17 MISG      29.94F
HULETT         FAIR      77  34  20 S12       29.97
NEWCASTLE      FAIR      72  34  25 S8        30.00

$$
WYZ014>020-022>026-101>103-202100-
CENTRAL WYOMING

CITY           SKY/WX    TMP DP  RH WIND       PRES   REMARKS
BIG PINEY      SUNNY     65  28  24 S6        30.14F
PINEDALE       MOCLDY    63  28  27 SE5       30.16F
DUBOIS         FAIR      64  23  20 W16G25    30.10F
LANDER         SUNNY     68  28  22 N5        30.02F
RIVERTON       SUNNY     67  30  25 NE7       30.04F
CASPER         SUNNY     74  32  21 SW18G25   30.04F
DOUGLAS        SUNNY     77  33  20 VRB3      30.03F

$$
WYZ021-027>030-104>119-202100-
SOUTHERN WYOMING

CITY           SKY/WX    TMP DP  RH WIND       PRES   REMARKS
EVANSTON       MOSUNNY   68  31  25 SW14      30.14F
KEMMERER       MOCLDY    64  30  27 S5        30.15F
FORT BRIDGER   FAIR      65  33  30 NE5       30.17F
ROCK SPRINGS   SUNNY     65  29  25 N5        30.13F
DIXON          FAIR      70  33  26 W6        30.18F
RAWLINS        SUNNY     67  33  28 SW16G26   30.15F
SARATOGA       FAIR      64  32  29 W9        30.16F
LARAMIE        MOSUNNY   66  32  28 S9        30.16F
CHEYENNE       SUNNY     71  34  25 S16       30.13F
TORRINGTON     SUNNY     80  39  23 S7        29.99F
PINE BLUFFS    FAIR      73  34  23 S17       30.09F

$$


USA.gov is the U.S. government's official web portal to all federal, state and local government web resources and services.